This is the latest recevied weather packets stored in our database for station/object KJ4UBX-11. If no packets are shown the sender has not sent any weather packets the latest 10 day(s).
| Time | Temp. | Humidity | Pressure | Rain* | Wind** | Luminosity | Snow |
|---|---|---|---|---|---|---|---|
| 1778190761 | 21.67° C | 39% | 1002.4 hPa | - | - | - | - |
| 1778190179 | 21.67° C | 32% | 1002.6 hPa | - | - | - | - |
| 1778189596 | 21.67° C | 29% | 1002.5 hPa | - | - | - | - |
| 1778189012 | 21.67° C | 35% | 1002.5 hPa | - | - | - | - |
| 1778188430 | 22.22° C | 35% | 1002.5 hPa | - | - | - | - |
| 1778187846 | 21.67° C | 26% | 1002.4 hPa | - | - | - | - |
| 1778187263 | 22.22° C | 33% | 1002.3 hPa | - | - | - | - |
| 1778186681 | 22.22° C | 33% | 1002.3 hPa | - | - | - | - |
| 1778186098 | 22.78° C | 28% | 1002.4 hPa | - | - | - | - |
| 1778185513 | 22.22° C | 28% | 1002.4 hPa | - | - | - | - |
| 1778184931 | 22.22° C | 26% | 1002.3 hPa | - | - | - | - |
| 1778184348 | 22.78° C | 28% | 1002.3 hPa | - | - | - | - |
| 1778183764 | 22.78° C | 32% | 1002.3 hPa | - | - | - | - |
| 1778183181 | 22.78° C | 30% | 1002.3 hPa | - | - | - | - |
| 1778182597 | 22.78° C | 27% | 1002.3 hPa | - | - | - | - |
| 1778182014 | 22.78° C | 37% | 1002.5 hPa | - | - | - | - |
| 1778181430 | 23.33° C | 32% | 1002.6 hPa | - | - | - | - |
| 1778180847 | 22.78° C | 34% | 1002.6 hPa | - | - | - | - |
| 1778180264 | 23.33° C | 32% | 1002.6 hPa | - | - | - | - |
| 1778179681 | 23.89° C | 39% | 1002.6 hPa | - | - | - | - |
| 1778179097 | 23.33° C | 33% | 1002.5 hPa | - | - | - | - |
| 1778178513 | 23.33° C | 35% | 1002.6 hPa | - | - | - | - |
| 1778177932 | 23.89° C | 34% | 1002.5 hPa | - | - | - | - |
| 1778177347 | 22.78° C | 39% | 1002.6 hPa | - | - | - | - |
| 1778176766 | 22.78° C | 32% | 1002.8 hPa | - | - | - | - |
* Rain since midnight (hover to see other rain measurements)
** Current wind speed in m/s (hover to see current wind gust speed)